[Date Prev][Date Next][Thread Prev][Thread Next] - [Date Index][Thread Index][Author Index]
2 Line ISS Keps 3-11
- Subject: [sarex] 2 Line ISS Keps 3-11
- From: "Dave Larsen PhD" <doc@xxxxxxxxxxx>
- Date: Thu, 10 Mar 2005 19:47:46 -0800
ISS
1 25544U 98067A 05069.80658593 .00020305 00000-0 16508-3 0 9863
2 25544 051.6464 044.1899 0004064 174.6830 257.5491 15.70669395360212
----
Via the sarex mailing list at AMSAT.ORG courtesy of AMSAT-NA.
To unsubscribe, send "unsubscribe sarex" to Majordomo@amsat.org
AMSAT Home